User: anonymous   Login
Location: Aulnoy
(48.8410°N, 3.0967°E)
Time: 08:57:20
(UTC+00:00)
Language:

COSMOS 2428 - Orbit

View from above orbital plane
View from above orbital plane
View from above satellite
View from above satellite

Ground track
Ground track

The orbit data is extracted from the following two-line orbital elements,

1 31792U 07029A   23157.06094293 -.00000160  00000-0 -60764-4 0  9997
2 31792  70.9290 158.1362 0009319 253.7124 106.2972 14.12545687821868
Epoch (UTC): 06 June 2023 01:27:45
Eccentricity: 0.0009319
inclination: 70.9290°
perigee height: 844 km
apogee height: 857 km
right ascension of ascending node: 158.1362°
argument of perigee: 253.7124°
revolutions per day: 14.12545687
mean anomaly at epoch: 106.2972°
orbit number at epoch: 82186

The dashed part of the orbit path shows where the satellite is in the earth's shadow,  

DLR